| time (UTC) | temp F | wind direction | speed MPH | gust MPH | rain 1hr in | rain 24hr in | rain mn in | humidity % | barometer mb |
| 20260506135145 | 53 | 0 | 0.0 | 0.0 | 0.00 | 0.00 | 0.00 | 48 | 1014.8 |
| 20260506134145 | 52 | 0 | 0.0 | 0.0 | 0.00 | 0.00 | 0.00 | 48 | 1014.5 |
| 20260506133145 | 51 | 0 | 0.0 | 0.0 | 0.00 | 0.00 | 0.00 | 47 | 1014.3 |
| 20260506132145 | 50 | 0 | 0.0 | 0.0 | 0.00 | 0.00 | 0.00 | 48 | 1014.2 |
| 20260506131146 | 50 | 0 | 0.0 | 0.0 | 0.00 | 0.00 | 0.00 | 47 | 1014.1 |
| 20260506130145 | 50 | 0 | 0.0 | 0.0 | 0.00 | 0.00 | 0.00 | 49 | 1014.0 |
| 20260506124145 | 48 | 0 | 0.0 | 0.0 | 0.00 | 0.00 | 0.00 | 50 | 1014.0 |
| 20260506123145 | 48 | 0 | 0.0 | 0.0 | 0.00 | 0.00 | 0.00 | 50 | 1013.7 |
| 20260506122145 | 49 | 0 | 0.0 | 0.0 | 0.00 | 0.00 | 0.00 | 48 | 1013.7 |
| 20260506121145 | 48 | 0 | 0.0 | 0.0 | 0.00 | 0.00 | 0.00 | 48 | 1013.5 |
| 20260506120145 | 48 | 0 | 0.0 | 0.0 | 0.00 | 0.00 | 0.00 | 49 | 1013.4 |
| 20260506115145 | 48 | 0 | 0.0 | 0.0 | 0.00 | 0.00 | 0.00 | 49 | 1013.3 |
| 20260506114145 | 48 | 0 | 0.0 | 1.0 | 0.00 | 0.00 | 0.00 | 48 | 1013.3 |
| 20260506113145 | 48 | 0 | 0.0 | 0.0 | 0.00 | 0.00 | 0.00 | 47 | 1013.2 |
| 20260506112145 | 48 | 0 | 0.0 | 0.0 | 0.00 | 0.00 | 0.00 | 48 | 1013.2 |
| 20260506111147 | 48 | 0 | 0.0 | 5.0 | 0.00 | 0.00 | 0.00 | 49 | 1013.1 |
| 20260506110145 | 47 | 179 | 2.0 | 5.0 | 0.00 | 0.00 | 0.00 | 50 | 1013.1 |
| 20260506105145 | 48 | 178 | 4.0 | 6.0 | 0.00 | 0.00 | 0.00 | 49 | 1012.9 |
| 20260506103145 | 49 | 0 | 0.0 | 5.0 | 0.00 | 0.00 | 0.00 | 46 | 1012.8 |
| 20260506102145 | 49 | 0 | 0.0 | 0.0 | 0.00 | 0.00 | 0.00 | 45 | 1012.9 |
| 20260506100145 | 49 | 229 | 1.0 | 3.0 | 0.00 | 0.00 | 0.00 | 45 | 1012.6 |
| 20260506095145 | 49 | 0 | 0.0 | 4.0 | 0.00 | 0.00 | 0.00 | 45 | 1012.7 |
| 20260506093145 | 49 | 0 | 0.0 | 5.0 | 0.00 | 0.00 | 0.00 | 45 | 1012.6 |
| 20260506092145 | 49 | 174 | 2.0 | 6.0 | 0.00 | 0.00 | 0.00 | 44 | 1012.6 |
| 20260506090145 | 50 | 166 | 4.0 | 6.0 | 0.00 | 0.00 | 0.00 | 43 | 1012.6 |
| 20260506085145 | 50 | 159 | 3.0 | 6.0 | 0.00 | 0.00 | 0.00 | 43 | 1012.6 |
| 20260506083145 | 50 | 0 | 0.0 | 6.0 | 0.00 | 0.00 | 0.00 | 42 | 1012.5 |
| 20260506082145 | 51 | 152 | 2.0 | 5.0 | 0.00 | 0.00 | 0.00 | 41 | 1012.6 |
| 20260506080146 | 51 | 0 | 0.0 | 3.0 | 0.00 | 0.00 | 0.00 | 40 | 1012.4 |
| 20260506073146 | 54 | 0 | 0.0 | 16.0 | 0.00 | 0.00 | 0.00 | 37 | 1012.5 |
| 20260506072146 | 54 | 232 | 5.0 | 20.0 | 0.00 | 0.00 | 0.00 | 37 | 1012.3 |
| 20260506071147 | 54 | 245 | 14.0 | 21.0 | 0.00 | 0.00 | 0.00 | 37 | 1012.1 |
| 20260506070146 | 54 | 231 | 16.0 | 24.0 | 0.00 | 0.00 | 0.00 | 37 | 1012.1 |
| 20260506062146 | 53 | 222 | 8.0 | 14.0 | 0.00 | 0.00 | 0.00 | 38 | 1012.3 |
| 20260506061147 | 53 | 0 | 0.0 | 5.0 | 0.00 | 0.00 | 0.00 | 37 | 1012.5 |
| 20260506060146 | 53 | 0 | 0.0 | 5.0 | 0.00 | 0.00 | 0.00 | 37 | 1012.3 |
| 20260506051148 | 53 | 0 | 0.0 | 0.0 | 0.00 | 0.00 | 0.00 | 34 | 1012.1 |
| 20260506050146 | 53 | 0 | 0.0 | 0.0 | 0.00 | 0.00 | 0.00 | 34 | 1012.2 |
| 20260506044147 | 53 | 0 | 0.0 | 2.0 | 0.00 | 0.00 | 0.00 | 34 | 1012.0 |
| 20260506043146 | 53 | 0 | 0.0 | 2.0 | 0.00 | 0.00 | 0.00 | 35 | 1011.8 |
| 20260506042146 | 53 | 0 | 0.0 | 2.0 | 0.00 | 0.00 | 0.00 | 35 | 1011.7 |
| 20260506041147 | 54 | 0 | 0.0 | 2.0 | 0.00 | 0.00 | 0.00 | 34 | 1011.5 |
| 20260506040146 | 54 | 0 | 0.0 | 7.0 | 0.00 | 0.00 | 0.00 | 33 | 1011.2 |
| 20260506035146 | 54 | 0 | 0.0 | 8.0 | 0.00 | 0.00 | 0.00 | 33 | 1011.0 |
| 20260506034147 | 54 | 0 | 0.0 | 5.0 | 0.00 | 0.00 | 0.00 | 33 | 1010.8 |
| 20260506033147 | 54 | 183 | 1.0 | 6.0 | 0.00 | 0.00 | 0.00 | 33 | 1010.7 |
| 20260506032146 | 54 | 190 | 2.0 | 7.0 | 0.00 | 0.00 | 0.00 | 33 | 1010.6 |
| 20260506031148 | 55 | 172 | 1.0 | 5.0 | 0.00 | 0.00 | 0.00 | 32 | 1010.3 |
| 20260506030147 | 55 | 0 | 0.0 | 1.0 | 0.00 | 0.00 | 0.00 | 32 | 1010.1 |
| 20260506025146 | 56 | 0 | 0.0 | 1.0 | 0.00 | 0.00 | 0.00 | 32 | 1009.9 |
| 20260506024148 | 56 | 0 | 0.0 | 0.0 | 0.00 | 0.00 | 0.00 | 31 | 1009.9 |
| 20260506023146 | 56 | 221 | 1.0 | 8.0 | 0.00 | 0.00 | 0.00 | 31 | 1009.7 |
| 20260506022147 | 56 | 222 | 5.0 | 11.0 | 0.00 | 0.00 | 0.00 | 31 | 1009.4 |
| 20260506021147 | 57 | 0 | 0.0 | 14.0 | 0.00 | 0.00 | 0.00 | 31 | 1009.2 |
| 20260506020147 | 58 | 227 | 8.0 | 15.0 | 0.00 | 0.00 | 0.00 | 30 | 1009.0 |
| 20260506015146 | 58 | 234 | 5.0 | 10.0 | 0.00 | 0.00 | 0.00 | 30 | 1009.0 |
| 20260506014150 | 59 | 204 | 1.0 | 6.0 | 0.00 | 0.00 | 0.00 | 31 | 1008.9 |
| 20260506013146 | 60 | 169 | 2.0 | 13.0 | 0.00 | 0.00 | 0.00 | 30 | 1008.8 |
| 20260506012147 | 60 | 249 | 4.0 | 13.0 | 0.00 | 0.00 | 0.00 | 29 | 1008.7 |
| 20260506011147 | 60 | 0 | 0.0 | 10.0 | 0.00 | 0.00 | 0.00 | 30 | 1008.6 |
| 20260506010146 | 61 | 196 | 4.0 | 11.0 | 0.00 | 0.00 | 0.00 | 29 | 1008.6 |
| 20260506005146 | 60 | 212 | 3.0 | 14.0 | 0.00 | 0.00 | 0.00 | 30 | 1008.6 |
| 20260506004148 | 60 | 175 | 2.0 | 12.0 | 0.00 | 0.00 | 0.00 | 31 | 1008.5 |
| 20260506003147 | 60 | 185 | 6.0 | 21.0 | 0.00 | 0.00 | 0.00 | 31 | 1008.4 |
| 20260506002147 | 60 | 157 | 13.0 | 17.0 | 0.00 | 0.00 | 0.00 | 30 | 1008.4 |
| 20260506001147 | 61 | 163 | 6.0 | 16.0 | 0.00 | 0.00 | 0.00 | 30 | 1008.3 |
| 20260506000147 | 61 | 209 | 7.0 | 17.0 | 0.00 | 0.00 | 0.00 | 30 | 1008.3 |
| 20260505235148 | 60 | 214 | 3.0 | 18.0 | 0.00 | 0.00 | 0.00 | 30 | 1008.2 |
| 20260505234147 | 61 | 140 | 2.0 | 14.0 | 0.00 | 0.00 | 0.00 | 30 | 1008.2 |
| 20260505233147 | 59 | 132 | 4.0 | 16.0 | 0.00 | 0.00 | 0.00 | 31 | 1008.1 |
| 20260505232147 | 59 | 162 | 8.0 | 14.0 | 0.00 | 0.00 | 0.00 | 31 | 1008.3 |
| 20260505231150 | 60 | 199 | 12.0 | 19.0 | 0.00 | 0.00 | 0.00 | 29 | 1008.2 |
| 20260505230147 | 61 | 171 | 8.0 | 16.0 | 0.00 | 0.00 | 0.00 | 30 | 1008.3 |
| 20260505225147 | 59 | 160 | 6.0 | 14.0 | 0.00 | 0.00 | 0.00 | 30 | 1008.4 |
| 20260505224147 | 58 | 128 | 4.0 | 16.0 | 0.00 | 0.00 | 0.00 | 31 | 1008.5 |
| 20260505223147 | 58 | 203 | 2.0 | 10.0 | 0.00 | 0.00 | 0.00 | 31 | 1008.5 |
| 20260505222150 | 60 | 148 | 9.0 | 21.0 | 0.00 | 0.00 | 0.00 | 29 | 1008.4 |
| 20260505221147 | 62 | 131 | 9.0 | 23.0 | 0.00 | 0.00 | 0.00 | 29 | 1008.6 |
| 20260505220147 | 61 | 151 | 12.0 | 23.0 | 0.00 | 0.00 | 0.00 | 28 | 1008.7 |
| 20260505215147 | 60 | 197 | 9.0 | 20.0 | 0.00 | 0.00 | 0.00 | 31 | 1008.8 |
| 20260505214147 | 58 | 148 | 15.0 | 21.0 | 0.00 | 0.00 | 0.00 | 32 | 1009.0 |
| 20260505213147 | 59 | 150 | 14.0 | 20.0 | 0.00 | 0.00 | 0.00 | 31 | 1008.8 |
| 20260505212147 | 59 | 118 | 10.0 | 18.0 | 0.00 | 0.00 | 0.00 | 33 | 1008.9 |
| 20260505210150 | 62 | 130 | 9.0 | 24.0 | 0.00 | 0.00 | 0.00 | 30 | 1009.0 |
| 20260505205148 | 63 | 150 | 9.0 | 16.0 | 0.00 | 0.00 | 0.00 | 29 | 1009.0 |
| 20260505204147 | 62 | 245 | 4.0 | 19.0 | 0.00 | 0.00 | 0.00 | 31 | 1009.1 |
| 20260505203147 | 61 | 218 | 11.0 | 21.0 | 0.00 | 0.00 | 0.00 | 33 | 1009.0 |
| 20260505202148 | 60 | 153 | 7.0 | 20.0 | 0.00 | 0.00 | 0.00 | 32 | 1009.1 |
| 20260505201150 | 61 | 135 | 2.0 | 16.0 | 0.00 | 0.00 | 0.00 | 33 | 1009.1 |
| 20260505200147 | 61 | 152 | 8.0 | 18.0 | 0.00 | 0.00 | 0.00 | 32 | 1009.2 |
| 20260505195148 | 59 | 144 | 12.0 | 19.0 | 0.00 | 0.00 | 0.00 | 34 | 1009.3 |
| 20260505194154 | 58 | 163 | 14.0 | 26.0 | 0.00 | 0.00 | 0.00 | 36 | 1009.5 |
| 20260505193148 | 58 | 136 | 13.0 | 20.0 | 0.00 | 0.00 | 0.00 | 36 | 1009.6 |
| 20260505192151 | 58 | 139 | 13.0 | 19.0 | 0.00 | 0.00 | 0.00 | 37 | 1009.7 |
| 20260505191148 | 57 | 148 | 7.0 | 21.0 | 0.00 | 0.00 | 0.00 | 39 | 1010.0 |
| 20260505190149 | 57 | 190 | 9.0 | 18.0 | 0.00 | 0.00 | 0.00 | 42 | 1010.0 |
| 20260505185147 | 54 | 141 | 9.0 | 15.0 | 0.00 | 0.00 | 0.00 | 44 | 1010.2 |
| 20260505184147 | 54 | 191 | 6.0 | 16.0 | 0.00 | 0.00 | 0.00 | 43 | 1010.1 |
| 20260505183147 | 54 | 170 | 6.0 | 17.0 | 0.00 | 0.00 | 0.00 | 45 | 1010.1 |
| 20260505182148 | 54 | 201 | 5.0 | 15.0 | 0.00 | 0.00 | 0.00 | 46 | 1010.1 |
| 20260505181148 | 55 | 195 | 6.0 | 16.0 | 0.00 | 0.00 | 0.00 | 45 | 1010.0 |
| 20260505174150 | 56 | 144 | 11.0 | 19.0 | 0.00 | 0.00 | 0.00 | 44 | 1010.0 |
| 20260505173147 | 56 | 139 | 8.0 | 15.0 | 0.00 | 0.00 | 0.00 | 43 | 1010.0 |
| 20260505172148 | 55 | 167 | 6.0 | 19.0 | 0.00 | 0.00 | 0.00 | 47 | 1010.1 |
| 20260505171148 | 55 | 194 | 12.0 | 19.0 | 0.00 | 0.00 | 0.00 | 46 | 1010.0 |
| 20260505170148 | 55 | 210 | 3.0 | 16.0 | 0.00 | 0.00 | 0.00 | 47 | 1010.2 |
| 20260505165148 | 53 | 151 | 7.0 | 20.0 | 0.00 | 0.00 | 0.00 | 50 | 1009.9 |
| 20260505164148 | 52 | 143 | 16.0 | 23.0 | 0.00 | 0.00 | 0.00 | 49 | 1009.8 |
| 20260505163148 | 51 | 136 | 9.0 | 23.0 | 0.00 | 0.00 | 0.00 | 51 | 1009.8 |
| 20260505162148 | 52 | 142 | 20.0 | 26.0 | 0.00 | 0.00 | 0.00 | 49 | 1009.7 |
| 20260505161148 | 51 | 155 | 6.0 | 24.0 | 0.00 | 0.00 | 0.00 | 52 | 1009.7 |
| 20260505160148 | 50 | 185 | 14.0 | 24.0 | 0.00 | 0.00 | 0.00 | 51 | 1009.7 |
| 20260505153148 | 51 | 168 | 17.0 | 31.0 | 0.00 | 0.00 | 0.00 | 51 | 1010.3 |
| 20260505152148 | 51 | 157 | 15.0 | 23.0 | 0.00 | 0.00 | 0.00 | 53 | 1010.3 |
| 20260505150148 | 50 | 207 | 6.0 | 18.0 | 0.00 | 0.00 | 0.00 | 54 | 1010.2 |
| 20260505140148 | 48 | 147 | 4.0 | 15.0 | 0.00 | 0.00 | 0.00 | 55 | 1010.1 |